Terminal Aerodrome Forecast
Issued by NWS Lake Charles, LA

Home | Current Version | Previous Version | Text Only | Print | Product List | Glossary On
Versions: 1 2 3 4 5 6 7 8 9 10 11 12 13 14 15 16
000
FTUS44 KLCH 200500
TAFAEX
TAF
KAEX 200520Z 2006/2106 03006KT P6SM OVC006
     FM201500 03008KT P6SM OVC025
     FM202000 03006KT P6SM SCT050=

USA.gov is the U.S. government's official web portal to all federal, state and local government web resources and services.